| time (UTC) | temp C | wind direction | speed KPH | gust KPH | rain 1hr cm | rain 24hr cm | rain mn cm | humidity % | barometer mb |
| 20260507070054 | 10 | 0 | 0.0 | 4.8 | 0.03 | 1.04 | 0.03 | 78 | 1011.2 |
| 20260507064554 | 10 | 0 | 0.0 | 3.2 | 0.03 | 1.04 | 0.03 | 81 | 1011.1 |
| 20260507063051 | 11 | 0 | 0.0 | 4.8 | 0.03 | 1.04 | 0.03 | 78 | 1011.1 |
| 20260507061551 | 11 | 0 | 0.0 | 6.4 | 0.00 | 1.02 | 0.00 | 79 | 1011.1 |
| 20260507060049 | 11 | 283 | 1.6 | 6.4 | 0.00 | 1.02 | 0.00 | 81 | 1011.1 |
| 20260507054636 | 11 | 0 | 3.2 | 9.7 | 0.00 | 1.02 | 0.00 | 82 | 1011.0 |
| 20260507053053 | 11 | 257 | 0.0 | 4.8 | 0.00 | 1.02 | 0.00 | 83 | 1011.1 |
| 20260507051552 | 11 | 0 | 0.0 | 1.6 | 0.00 | 1.02 | 0.00 | 83 | 1011.1 |
| 20260507050057 | 11 | 0 | 0.0 | 6.4 | 0.00 | 1.02 | 0.00 | 83 | 1011.0 |
| 20260507044602 | 11 | 0 | 0.0 | 4.8 | 0.00 | 1.02 | 0.00 | 84 | 1011.3 |
| 20260507043100 | 11 | 96 | 3.2 | 9.7 | 0.00 | 1.02 | 0.00 | 83 | 1011.4 |
| 20260507041603 | 11 | 253 | 0.0 | 4.8 | 0.00 | 1.02 | 0.00 | 83 | 1011.2 |
| 20260507040058 | 12 | 120 | 1.6 | 8.0 | 0.00 | 1.02 | 0.00 | 82 | 1011.3 |
| 20260507034602 | 12 | 0 | 3.2 | 11.3 | 0.00 | 1.02 | 1.02 | 82 | 1011.1 |
| 20260507033101 | 12 | 288 | 3.2 | 9.7 | 0.00 | 1.02 | 1.02 | 82 | 1010.9 |
| 20260507031605 | 12 | 0 | 0.0 | 4.8 | 0.00 | 1.02 | 1.02 | 81 | 1010.2 |
| 20260507030057 | 12 | 239 | 3.2 | 11.3 | 0.00 | 1.02 | 1.02 | 81 | 1010.7 |
| 20260507024556 | 12 | 0 | 0.0 | 12.9 | 0.00 | 1.02 | 1.02 | 81 | 1010.6 |
| 20260507023103 | 13 | 242 | 3.2 | 11.3 | 0.00 | 1.02 | 1.02 | 80 | 1010.7 |
| 20260507021554 | 13 | 268 | 1.6 | 11.3 | 0.00 | 1.02 | 1.02 | 80 | 1010.6 |
| 20260507020056 | 13 | 246 | 1.6 | 16.1 | 0.00 | 1.02 | 1.02 | 78 | 1010.5 |
| 20260507014604 | 13 | 304 | 3.2 | 14.5 | 0.00 | 1.02 | 1.02 | 78 | 1010.6 |
| 20260507013047 | 14 | 235 | 1.6 | 9.7 | 0.00 | 1.02 | 1.02 | 79 | 1010.7 |
| 20260507011549 | 14 | 278 | 6.4 | 14.5 | 0.00 | 1.02 | 1.02 | 79 | 1010.3 |
| 20260507010049 | 14 | 0 | 4.8 | 16.1 | 0.00 | 1.02 | 1.02 | 79 | 1010.2 |
| 20260507004547 | 14 | 0 | 4.8 | 16.1 | 0.00 | 1.02 | 1.02 | 79 | 1010.0 |
| 20260507003051 | 14 | 267 | 1.6 | 12.9 | 0.00 | 1.02 | 1.02 | 80 | 1009.9 |
| 20260507001551 | 15 | 300 | 1.6 | 8.0 | 0.00 | 1.02 | 1.02 | 80 | 1009.5 |
| 20260507000051 | 15 | 15 | 1.6 | 14.5 | 0.00 | 1.02 | 1.02 | 80 | 1009.0 |
| 20260506234550 | 15 | 260 | 4.8 | 16.1 | 0.00 | 1.02 | 1.02 | 82 | 1008.8 |
| 20260506233108 | 15 | 340 | 3.2 | 12.9 | 0.00 | 1.02 | 1.02 | 84 | 1008.3 |
| 20260506231550 | 15 | 327 | 3.2 | 17.7 | 0.00 | 1.02 | 1.02 | 84 | 1008.3 |
| 20260506230053 | 16 | 0 | 3.2 | 12.9 | 0.05 | 1.02 | 1.02 | 85 | 1008.2 |
| 20260506224553 | 16 | 323 | 3.2 | 12.9 | 0.18 | 1.02 | 1.02 | 86 | 1008.2 |
| 20260506223102 | 17 | 323 | 4.8 | 11.3 | 0.18 | 1.02 | 1.02 | 86 | 1008.0 |
| 20260506221600 | 17 | 0 | 0.0 | 1.6 | 0.18 | 1.02 | 1.02 | 87 | 1007.8 |
| 20260506220056 | 17 | 0 | 1.6 | 9.7 | 0.13 | 0.97 | 0.97 | 86 | 1007.6 |
| 20260506214554 | 18 | 332 | 1.6 | 4.8 | 0.00 | 0.84 | 0.84 | 86 | 1007.4 |
| 20260506213111 | 18 | 214 | 1.6 | 8.0 | 0.00 | 0.84 | 0.84 | 86 | 1007.1 |
| 20260506211558 | 18 | 0 | 0.0 | 3.2 | 0.00 | 0.84 | 0.84 | 86 | 1006.9 |
| 20260506210056 | 18 | 0 | 0.0 | 6.4 | 0.00 | 0.84 | 0.84 | 86 | 1006.9 |
| 20260506204551 | 18 | 279 | 1.6 | 8.0 | 0.00 | 0.84 | 0.84 | 86 | 1007.0 |
| 20260506203050 | 18 | 305 | 1.6 | 4.8 | 0.00 | 0.84 | 0.84 | 86 | 1006.9 |
| 20260506201550 | 17 | 267 | 0.0 | 9.7 | 0.00 | 0.84 | 0.84 | 87 | 1006.8 |
| 20260506200053 | 17 | 346 | 1.6 | 6.4 | 0.00 | 0.84 | 0.84 | 88 | 1006.8 |
| 20260506194628 | 16 | 258 | 3.2 | 9.7 | 0.00 | 0.84 | 0.84 | 89 | 1007.0 |
| 20260506193102 | 16 | 0 | 1.6 | 6.4 | 0.00 | 0.84 | 0.84 | 90 | 1007.1 |
| 20260506191554 | 16 | 0 | 1.6 | 6.4 | 0.00 | 0.84 | 0.84 | 90 | 1007.2 |
| 20260506190052 | 16 | 269 | 1.6 | 4.8 | 0.00 | 0.84 | 0.84 | 91 | 1007.2 |
| 20260506184547 | 16 | 325 | 1.6 | 6.4 | 0.00 | 0.84 | 0.84 | 91 | 1007.3 |
| 20260506183051 | 15 | 319 | 1.6 | 6.4 | 0.03 | 0.84 | 0.84 | 91 | 1007.6 |
| 20260506181549 | 15 | 30 | 1.6 | 4.8 | 0.03 | 0.84 | 0.84 | 91 | 1007.6 |
| 20260506174555 | 15 | 0 | 0.0 | 11.3 | 0.08 | 0.84 | 0.84 | 90 | 1007.6 |
| 20260506173057 | 15 | 0 | 0.0 | 6.4 | 0.05 | 0.81 | 0.81 | 90 | 1007.6 |
| 20260506171557 | 15 | 286 | 0.0 | 6.4 | 0.05 | 0.81 | 0.81 | 90 | 1007.8 |
| 20260506170103 | 15 | 306 | 1.6 | 8.0 | 0.03 | 0.79 | 0.79 | 90 | 1007.8 |
| 20260506164557 | 15 | 277 | 3.2 | 6.4 | 0.00 | 0.76 | 0.76 | 90 | 1007.9 |
| 20260506163111 | 15 | 329 | 0.0 | 3.2 | 0.00 | 0.76 | 0.76 | 90 | 1008.0 |
| 20260506161606 | 15 | 0 | 0.0 | 11.3 | 0.00 | 0.76 | 0.76 | 89 | 1008.1 |
| 20260506160050 | 15 | 0 | 1.6 | 6.4 | 0.05 | 0.76 | 0.76 | 90 | 1008.0 |
| 20260506154609 | 15 | 0 | 1.6 | 4.8 | 0.15 | 0.76 | 0.76 | 90 | 1008.2 |
| 20260506153058 | 15 | 258 | 0.0 | 6.4 | 0.25 | 0.76 | 0.76 | 90 | 1007.9 |
| 20260506151558 | 15 | 255 | 0.0 | 6.4 | 0.38 | 0.76 | 0.76 | 89 | 1007.8 |
| 20260506150047 | 15 | 0 | 0.0 | 11.3 | 0.33 | 0.71 | 0.71 | 89 | 1008.0 |
| 20260506144548 | 15 | 120 | 3.2 | 8.0 | 0.25 | 0.58 | 0.58 | 89 | 1008.3 |
| 20260506143100 | 15 | 178 | 4.8 | 16.1 | 0.25 | 0.51 | 0.51 | 88 | 1008.8 |
| 20260506141549 | 15 | 261 | 1.6 | 8.0 | 0.18 | 0.38 | 0.38 | 88 | 1008.7 |
| 20260506140057 | 15 | 0 | 0.0 | 3.2 | 0.18 | 0.38 | 0.38 | 88 | 1008.3 |
| 20260506134550 | 15 | 275 | 0.0 | 4.8 | 0.15 | 0.33 | 0.33 | 88 | 1008.2 |
| 20260506133057 | 15 | 293 | 0.0 | 4.8 | 0.10 | 0.25 | 0.25 | 87 | 1008.3 |
| 20260506131553 | 15 | 296 | 1.6 | 9.7 | 0.08 | 0.20 | 0.20 | 87 | 1008.5 |
| 20260506130053 | 15 | 0 | 0.0 | 1.6 | 0.13 | 0.20 | 0.20 | 87 | 1008.4 |
| 20260506124552 | 15 | 66 | 0.0 | 1.6 | 0.15 | 0.18 | 0.18 | 86 | 1008.4 |
| 20260506123054 | 15 | 0 | 0.0 | 4.8 | 0.15 | 0.15 | 0.15 | 85 | 1008.7 |
| 20260506121553 | 16 | 273 | 1.6 | 8.0 | 0.13 | 0.13 | 0.13 | 83 | 1008.9 |
| 20260506120101 | 16 | 0 | 0.0 | 8.0 | 0.08 | 0.08 | 0.08 | 81 | 1009.1 |
| 20260506114606 | 16 | 311 | 0.0 | 6.4 | 0.03 | 0.03 | 0.03 | 78 | 1008.8 |
| 20260506113054 | 17 | 272 | 1.6 | 12.9 | 0.00 | 0.00 | 0.00 | 74 | 1008.3 |
| 20260506111554 | 17 | 0 | 0.0 | 6.4 | 0.00 | 0.00 | 0.00 | 72 | 1008.2 |
| 20260506110059 | 18 | 314 | 0.0 | 17.7 | 0.00 | 0.00 | 0.00 | 67 | 1008.1 |
| 20260506104553 | 18 | 283 | 4.8 | 11.3 | 0.00 | 0.00 | 0.00 | 64 | 1007.8 |
| 20260506103049 | 18 | 250 | 1.6 | 11.3 | 0.00 | 0.00 | 0.00 | 63 | 1007.6 |
| 20260506101602 | 18 | 298 | 3.2 | 9.7 | 0.00 | 0.00 | 0.00 | 62 | 1007.5 |
| 20260506100050 | 18 | 267 | 4.8 | 14.5 | 0.00 | 0.00 | 0.00 | 61 | 1007.4 |
| 20260506094615 | 18 | 0 | 1.6 | 11.3 | 0.00 | 0.00 | 0.00 | 61 | 1007.3 |
| 20260506093054 | 19 | 269 | 4.8 | 11.3 | 0.00 | 0.00 | 0.00 | 60 | 1007.4 |
| 20260506091550 | 19 | 282 | 1.6 | 19.3 | 0.00 | 0.00 | 0.00 | 59 | 1007.5 |
| 20260506090052 | 19 | 350 | 4.8 | 19.3 | 0.00 | 0.00 | 0.00 | 58 | 1007.6 |
| 20260506084552 | 19 | 304 | 4.8 | 17.7 | 0.00 | 0.00 | 0.00 | 58 | 1007.7 |
| 20260506083059 | 19 | 285 | 3.2 | 11.3 | 0.00 | 0.00 | 0.00 | 57 | 1007.6 |
| 20260506081552 | 19 | 302 | 6.4 | 17.7 | 0.00 | 0.00 | 0.00 | 56 | 1007.7 |
| 20260506073050 | 20 | 276 | 3.2 | 11.3 | 0.00 | 0.00 | 0.00 | 55 | 1007.8 |
| 20260506071550 | 20 | 307 | 1.6 | 14.5 | 0.00 | 0.00 | 0.00 | 54 | 1007.9 |